{"data":{"norad_id":49207,"epoch":"2026-09-20T03:18:12.000096Z","epoch_age_seconds":39141,"freshness":"FRESH","line1":"1 49207U 21083X   26263.13763889  .00000032  00000+0  48028-4 0  9990","line2":"2 49207  87.9161 316.5908 0001598 109.4924 250.6380 13.18687599242504","mean_motion":13.18687599,"eccentricity":0.0001598,"inclination_deg":87.9161,"raan_deg":316.5908,"arg_perigee_deg":109.4924,"mean_anomaly_deg":250.638,"bstar":4.8028e-5,"rev_number":24250,"period_min":109.19947992929,"perigee_km":1188.52766288,"apogee_km":1190.9463554134,"semimajor_km":7567.8740091467,"source":"CELESTRAK","updated_at":"2026-09-20T09:00:44.664773Z"}}